EW6089 Weather Reports


time (UTC)temp
C
wind
direction
speed
KPH
gust
KPH
rain 1hr
cm
rain 24hr
cm
rain mn
cm
humidity
%
barometer
mb
20260506034036 14 0.0 0.0 0.00 0.00 0.00 86 1015.5
20260506033015 15 0.0 0.0 0.00 0.00 0.00 85 1015.4
20260506032036 15 0.0 0.0 0.00 0.00 0.00 84 1015.3
20260506031015 15 0.0 0.0 0.00 0.00 0.00 84 1015.3
20260506030035 15 0.0 0.0 0.00 0.00 0.00 83 1015.2
20260506025015 15 0.0 0.0 0.00 0.00 0.00 81 1015.1
20260506024015 16 0.0 0.0 0.00 0.00 0.00 80 1015.1
20260506023036 16 0.0 0.0 0.00 0.00 0.00 80 1015.0
20260506022015 16 0.0 0.0 0.00 0.00 0.00 78 1015.0
20260506021015 16 0.0 0.0 0.00 0.00 0.00 77 1015.0
20260506020016 16 0.0 0.0 0.00 0.00 0.00 78 1015.0
20260506015016 16 0.0 0.0 0.00 0.00 0.00 77 1015.0
20260506014015 17 0.0 0.0 0.00 0.00 0.00 75 1015.0
20260506013015 17 0.0 0.0 0.00 0.00 0.00 75 1015.0
20260506012017 17 0.0 0.0 0.00 0.00 0.00 75 1015.0
20260506011016 17 0.0 0.0 0.00 0.00 0.00 74 1015.0
20260506010015 17 0.0 1.6 0.00 0.00 0.00 73 1015.1
20260506005016 17 0.0 3.2 0.00 0.00 0.00 74 1015.2
20260506004017 17 0.0 4.8 0.00 0.00 0.00 73 1015.2
20260506003017 17 0.0 1.6 0.00 0.00 0.00 74 1015.2
20260506002017 17 0.0 3.2 0.00 0.00 0.00 74 1015.2
20260506001017 17 0.0 1.6 0.00 0.00 0.00 74 1015.2
20260506000017 17 0.0 4.8 0.00 0.00 0.00 73 1015.5
20260505235017 17 0.0 4.8 0.00 0.00 0.00 74 1015.7
20260505234017 17 113 1.6 4.8 0.00 0.00 0.00 74 1015.7
20260505233037 16 0.0 4.8 0.00 0.00 0.00 75 1015.7
20260505232018 16 0.0 3.2 0.00 0.00 0.00 77 1015.7
20260505231017 16 0.0 4.8 0.00 0.00 0.00 76 1015.8
20260505230057 16 158 1.6 4.8 0.00 0.00 0.00 77 1015.7
20260505225017 16 0.0 4.8 0.00 0.00 0.00 77 1015.9
20260505224017 16 0.0 4.8 0.00 0.00 0.00 77 1016.0
20260505223017 16 0.0 4.8 0.00 0.00 0.00 79 1016.1
20260505222017 16 0.0 4.8 0.00 0.00 0.00 78 1016.1
20260505221017 15 0.0 3.2 0.00 0.00 0.00 79 1016.2
20260505220017 15 0.0 3.2 0.00 0.00 0.00 79 1016.2
20260505215018 15 0.0 4.8 0.00 0.00 0.00 78 1016.3
20260505214017 15 0.0 4.8 0.00 0.00 0.00 80 1016.3
20260505213017 15 0.0 3.2 0.00 0.00 0.00 79 1016.4
20260505212017 15 158 1.6 6.4 0.00 0.00 0.00 80 1016.4
20260505211017 15 0.0 3.2 0.00 0.00 0.00 79 1016.4
20260505210037 15 68 1.6 4.8 0.00 0.00 0.00 79 1016.4
20260505205017 15 0.0 1.6 0.00 0.00 0.00 79 1016.5
20260505204017 15 0.0 8.0 0.00 0.00 0.00 80 1016.5
20260505203057 15 0.0 3.2 0.00 0.00 0.00 80 1016.5
20260505202017 15 0.0 8.0 0.00 0.00 0.00 80 1016.5
20260505201017 15 113 1.6 4.8 0.00 0.00 0.00 80 1016.4
20260505200017 15 0.0 3.2 0.00 0.00 0.00 81 1016.4
20260505195017 14 0.0 1.6 0.00 0.00 0.00 81 1016.5
20260505194057 14 0.0 4.8 0.00 0.00 0.00 81 1016.5
20260505193017 14 0.0 3.2 0.00 0.00 0.00 82 1016.5
20260505192016 14 0.0 3.2 0.00 0.00 0.00 83 1016.3
20260505191017 14 0.0 4.8 0.00 0.00 0.00 83 1016.4
20260505190017 13 0.0 3.2 0.00 0.00 0.00 83 1016.4
20260505185017 13 0.0 6.4 0.00 0.00 0.00 84 1016.3
20260505184017 13 0.0 6.4 0.00 0.00 0.00 84 1016.3
20260505183017 13 0.0 1.6 0.00 0.00 0.00 84 1016.4
20260505182017 13 0.0 3.2 0.00 0.00 0.00 85 1016.3
20260505181017 13 135 1.6 4.8 0.00 0.00 0.00 85 1016.3
20260505180017 13 113 1.6 6.4 0.00 0.00 0.00 85 1016.3
20260505175016 13 0.0 6.4 0.00 0.00 0.00 85 1016.4
20260505174017 13 0.0 6.4 0.00 0.00 0.00 85 1016.4
20260505173017 13 0.0 4.8 0.00 0.00 0.00 85 1016.3
20260505172037 13 0.0 4.8 0.00 0.00 0.00 85 1016.2
20260505171016 13 0.0 3.2 0.00 0.00 0.00 85 1016.1
20260505170037 13 0.0 1.6 0.00 0.00 0.00 85 1016.2
20260505165017 13 0.0 3.2 0.00 0.00 0.00 85 1016.1
20260505164016 13 0.0 3.2 0.00 0.00 0.00 85 1016.1
20260505163057 13 0.0 1.6 0.00 0.00 0.00 85 1016.1
20260505162016 13 0.0 1.6 0.00 0.00 0.00 85 1016.0
20260505161056 13 0.0 0.0 0.00 0.00 0.00 85 1016.0
20260505153017 13 0.0 1.6 0.00 0.00 0.00 85 1015.9
20260505152037 13 0.0 3.2 0.00 0.00 0.00 85 1015.8
20260505151017 13 0.0 3.2 0.00 0.00 0.00 85 1015.8
20260505125016 12 0.0 0.0 0.00 0.00 0.00 90 1014.4
20260505124016 12 0.0 0.0 0.00 0.00 0.00 90 1014.4
20260505123016 12 0.0 0.0 0.00 0.00 0.00 90 1014.3
20260505122036 11 0.0 0.0 0.00 0.00 0.00 90 1014.2
20260505121016 11 0.0 0.0 0.00 0.00 0.00 91 1014.2
20260505120036 11 0.0 0.0 0.00 0.00 0.00 90 1014.1
20260505115016 11 0.0 0.0 0.00 0.00 0.00 90 1014.0
20260505114016 11 0.0 0.0 0.00 0.00 0.00 89 1014.0
20260505113056 12 0.0 1.6 0.00 0.00 0.00 89 1014.0
20260505112016 12 0.0 1.6 0.00 0.00 0.00 89 1013.9
20260505111016 12 0.0 1.6 0.00 0.00 0.00 89 1013.9
20260505102017 12 0.0 3.2 0.00 0.00 0.00 88 1013.5
20260505101016 12 0.0 0.0 0.00 0.00 0.00 87 1013.4
20260505100016 12 0.0 1.6 0.00 0.00 0.00 87 1013.3
20260505095036 12 0.0 3.2 0.00 0.00 0.00 87 1013.2
20260505094017 12 0.0 1.6 0.00 0.00 0.00 87 1013.1
20260505093016 13 0.0 1.6 0.00 0.00 0.00 86 1013.0
20260505092016 13 0.0 0.0 0.00 0.00 0.00 86 1012.9
20260505091016 13 0.0 0.0 0.00 0.00 0.00 85 1012.9
20260505090016 13 0.0 0.0 0.00 0.00 0.00 85 1012.9
20260505085016 13 0.0 0.0 0.00 0.00 0.00 84 1012.8
20260505084036 13 0.0 0.0 0.00 0.00 0.00 84 1012.8
20260505083016 13 0.0 1.6 0.00 0.00 0.00 84 1012.7
20260505082016 13 0.0 1.6 0.00 0.00 0.00 83 1012.6
20260505081016 14 0.0 3.2 0.00 0.00 0.00 83 1012.5
20260505080016 14 0.0 1.6 0.00 0.00 0.00 82 1012.4
20260505075016 14 0.0 0.0 0.00 0.00 0.00 82 1012.4
20260505074016 15 0.0 3.2 0.00 0.00 0.00 82 1012.3
20260505073016 15 0.0 0.0 0.00 0.00 0.00 81 1012.2
20260505072019 15 0.0 1.6 0.00 0.00 0.00 80 1012.1
20260505071036 15 0.0 3.2 0.00 0.00 0.00 80 1012.0
20260505070016 15 0.0 1.6 0.00 0.00 0.00 79 1011.8
20260505065015 16 0.0 1.6 0.00 0.00 0.00 78 1011.8
20260505064016 16 0.0 1.6 0.00 0.00 0.00 78 1011.6
20260505063017 16 0.0 1.6 0.00 0.00 0.00 78 1011.5
20260505062016 16 0.0 0.0 0.00 0.00 0.00 78 1011.4
20260505061016 16 0.0 0.0 0.00 0.00 0.00 78 1011.3
20260505060015 16 0.0 0.0 0.00 0.00 0.00 77 1011.3
20260505055016 16 0.0 0.0 0.00 0.00 0.00 76 1011.3
20260505054016 16 0.0 0.0 0.00 0.00 0.00 75 1011.4
20260505053015 17 0.0 0.0 0.00 0.00 0.00 73 1011.2
20260505052015 17 0.0 0.0 0.00 0.00 0.00 71 1011.2
20260505051016 17 0.0 0.0 0.00 0.00 0.00 71 1011.1
20260505041036 20 0.0 0.0 0.00 0.00 0.00 61 1010.3
20260505040015 20 0.0 0.0 0.00 0.00 0.00 59 1010.1
20260505035015 20 0.0 3.2 0.00 0.00 0.00 59 1010.1